Kendall, FL

2:00 AM EDT on July 22, 2017 (GMT -0400)
Kendall-Tamiami Executive

Weather History for KTMB - October, 2012

Change the Weather History Date:

Wednesday, October 24, 2012

  Actual Average Record
Temperature  
Mean Temperature 80 °F -  
Max Temperature 87 °F 83 °F 89 °F (1990)
Min Temperature 73 °F 67 °F 59 °F (1999)
Cooling Degree Days 14    
Growing Degree Days 30 (Base 50)    
Moisture  
Dew Point 71 °F    
Average Humidity 79    
Maximum Humidity 94    
Minimum Humidity 53    
Precipitation  
Precipitation 0.35 in - - ()
Sea Level Pressure  
Sea Level Pressure 29.88 in    
Wind  
Wind Speed 10 mph (ENE)    
Max Wind Speed 25 mph    
Max Gust Speed 34 mph    
Visibility 10 miles    
Events Rain    
Averages and records for this station are not official NWS values.
T = Trace of Precipitation, MM = Missing Value Source: NWS Daily Summary

Daily Weather History Graph

Daily Weather History Graph

Search for Another Location

Airport or City:

Trip Planner

Search our weather history database for the weather conditions in past years. The results will help you decide how hot, cold, wet, or windy it might be!

Date:

Astronomy

Oct. 24, 2012 Rise Set
Actual Time 7:25 AM EDT 6:45 PM EDT
Civil Twilight 7:02 AM EDT 7:09 PM EDT
Nautical Twilight 6:35 AM EDT 7:36 PM EDT
Astronomical Twilight 6:08 AM EDT 8:03 PM EDT
Moon 3:36 PM EDT (10/24) 2:47 AM EDT (10/24)
Length of Visible Light 12h 07m
Length of Day
11h 20m
Waxing Gibbous, 76% of the Moon is Illuminated
Oct 24
Waxing Gibbous
Oct 29
Full
Nov 6
Last Quarter
Nov 13
New
Nov 20
First Quarter

Hourly Weather History & Observations

Time (EDT) Temp. Heat Index Dew Point Humidity Pressure Visibility Wind Dir Wind Speed Gust Speed Precip Events Conditions
12:53 AM 77.0 °F - 71.1 °F 82% 29.93 in 10.0 mi NE 9.2 mph - N/A   Mostly Cloudy
1:53 AM 75.9 °F - 71.1 °F 85% 29.91 in 10.0 mi NNE 6.9 mph - 0.00 in   Mostly Cloudy
2:29 AM 75.2 °F - 71.6 °F 89% 29.90 in 10.0 mi NE 5.8 mph - N/A   Mostly Cloudy
2:39 AM 75.2 °F - 71.6 °F 89% 29.90 in 10.0 mi NNE 3.5 mph - N/A   Scattered Clouds
2:53 AM 73.9 °F - 71.1 °F 91% 29.90 in 10.0 mi North 3.5 mph - N/A   Partly Cloudy
3:17 AM 75.2 °F - 71.6 °F 89% 29.89 in 10.0 mi NNE 5.8 mph - 0.00 in Rain Light Rain
3:37 AM 75.2 °F - 71.6 °F 89% 29.89 in 10.0 mi NE 6.9 mph - 0.00 in   Mostly Cloudy
3:53 AM 75.0 °F - 72.0 °F 90% 29.88 in 10.0 mi NE 6.9 mph - 0.00 in   Partly Cloudy
4:53 AM 75.9 °F - 71.1 °F 85% 29.88 in 10.0 mi ENE 6.9 mph - N/A   Clear
5:53 AM 75.9 °F - 71.1 °F 85% 29.88 in 10.0 mi ENE 4.6 mph - N/A   Mostly Cloudy
6:06 AM 75.2 °F - 71.6 °F 89% 29.89 in 10.0 mi East 6.9 mph - N/A   Scattered Clouds
6:53 AM 75.9 °F - 70.0 °F 82% 29.89 in 10.0 mi NE 5.8 mph - N/A   Clear
7:53 AM 77.0 °F - 71.1 °F 82% 29.91 in 10.0 mi East 6.9 mph - N/A   Mostly Cloudy
8:53 AM 81.0 °F 85.2 °F 72.0 °F 74% 29.91 in 10.0 mi East 15.0 mph - N/A   Partly Cloudy
9:53 AM 82.9 °F 88.0 °F 72.0 °F 69% 29.92 in 10.0 mi ENE 18.4 mph 25.3 mph N/A   Mostly Cloudy
10:53 AM 82.9 °F 87.0 °F 70.0 °F 65% 29.93 in 10.0 mi East 21.9 mph 31.1 mph N/A   Partly Cloudy
11:53 AM 84.9 °F 88.8 °F 69.1 °F 59% 29.92 in 10.0 mi East 23.0 mph 34.5 mph N/A   Clear
12:53 PM 86.0 °F 89.4 °F 68.0 °F 55% 29.89 in 10.0 mi East 25.3 mph 31.1 mph N/A   Partly Cloudy
1:53 PM 84.0 °F 87.0 °F 68.0 °F 58% 29.87 in 10.0 mi ENE 23.0 mph 27.6 mph N/A   Scattered Clouds
2:53 PM 84.9 °F 87.1 °F 66.0 °F 53% 29.85 in 10.0 mi ENE 20.7 mph 28.8 mph N/A   Partly Cloudy
3:53 PM 84.0 °F 87.0 °F 68.0 °F 58% 29.83 in 10.0 mi NE 18.4 mph 26.5 mph N/A   Scattered Clouds
4:53 PM 82.4 °F 85.4 °F 68.0 °F 62% 29.83 in 10.0 mi ENE 21.9 mph 29.9 mph N/A   Mostly Cloudy
5:53 PM 81.0 °F 84.9 °F 71.1 °F 72% 29.82 in 10.0 mi NE 13.8 mph - 0.00 in   Clear
6:53 PM 78.1 °F - 73.0 °F 84% 29.83 in 10.0 mi ENE 12.7 mph - 0.01 in   Mostly Cloudy
7:53 PM 77.0 °F - 70.0 °F 79% 29.84 in 10.0 mi ENE 9.2 mph - N/A   Partly Cloudy
8:53 PM 78.8 °F - 69.8 °F 74% 29.85 in 10.0 mi ENE 11.5 mph - N/A   Clear
9:53 PM 75.9 °F - 72.0 °F 87% 29.85 in 10.0 mi NE 12.7 mph - 0.11 in   Scattered Clouds
10:53 PM 75.9 °F - 73.0 °F 91% 29.85 in 10.0 mi ENE 9.2 mph - 0.14 in Rain Light Rain
11:17 PM 75.2 °F - 73.4 °F 94% 29.85 in 10.0 mi ESE 10.4 mph - N/A   Mostly Cloudy
11:41 PM 73.4 °F - 71.6 °F 94% 29.84 in 10.0 mi East 13.8 mph 19.6 mph 0.09 in Rain Light Rain
11:53 PM 73.9 °F - 71.1 °F 91% 29.83 in 10.0 mi East 21.9 mph 27.6 mph 0.09 in Rain Light Rain